Voltar ao catálogo

COSMOS 2607

AtivoMilitarPO
NORAD 67681·PAYLOAD·🇷🇺 Russia

Lançado Feb 5, 2026 de Plesetsk Cosmodrome

Loading…

Próximas Passagens (próximas 24 horas)

TLE

AtualizadoSource: Space-Track

Época: Sep 14, 2026, 02:29 UTC

1 67681U 26023H   26257.10353829  .00008314  00000-0  31702-3 0  9996
2 67681  96.6206 311.1093 0021831 159.3024 200.9106 15.26671476 33555

Acompanhe COSMOS 2607 em tempo real com AllMySat

Download on the App Store